Tracking 19146 objects as of 23-Apr-2018
HD Live streaming from Space Station
objects crossing your sky now

COSMOS 1527

Track COSMOS 1527 now!
10-day predictions
COSMOS 1527 is classified as:


NORAD ID: 14616
Int'l Code: 1984-001F
Perigee: 1,465.6 km
Apogee: 1,468.8 km
Inclination: 74.0 °
Period: 115.1 minutes
Semi major axis: 7838 km
RCS: 0.6921 m2 (medium)
Launch date: January 5, 1984
Source: Commonwealth of Independent States (former USSR) (CIS)
Launch site: PLESETSK MISSILE AND SPACE COMPLEX (PKMTR)
aabbcc
Your satellite tracking list
Your tracking list is empty




NASA's NSSDC Master Catalog

Two Line Element Set (TLE):
1 14616U 84001F   18112.94270510 +.00000002 +00000-0 +11605-3 0  9990
2 14616 074.0063 277.6043 0002074 298.8900 177.2265 12.51057937155100
Source of the keplerian elements: AFSPC